YO4FZV-11 Weather Reports


Display with metric or nautical units.
time (UTC)temp
F
wind
direction
speed
MPH
gust
MPH
rain 1hr
in
rain 24hr
in
rain mn
in
humidity
%
barometer
mb
20260504002833 43 270 6.0 6.0 0.00 0.00 0.00 69 1013.1
20260504002333 43 337 3.0 6.0 0.00 0.00 0.00 68 1013.1
20260504001833 43 292 2.0 5.0 0.00 0.00 0.00 68 1013.2
20260504001333 43 315 4.0 10.0 0.00 0.00 0.00 68 1013.2
20260504000833 43 292 6.0 7.0 0.00 0.00 0.00 68 1013.2
20260504000333 43 270 7.0 7.0 0.00 0.00 0.00 67 1013.2
20260503235833 43 292 4.0 10.0 0.00 0.00 0.00 67 1013.3
20260503235333 43 202 2.0 9.0 0.00 0.00 0.00 67 1013.4
20260503234833 44 315 7.0 7.0 0.00 0.00 0.00 67 1013.5
20260503234333 44 337 2.0 7.0 0.00 0.00 0.00 67 1013.5
20260503233833 44 315 3.0 7.0 0.00 0.00 0.00 67 1013.5
20260503233333 44 292 2.0 6.0 0.00 0.00 0.00 67 1013.7
20260503232833 44 270 5.0 9.0 0.00 0.00 0.00 67 1013.8
20260503232333 44 337 4.0 7.0 0.00 0.00 0.00 67 1013.7
20260503231833 43 270 2.0 7.0 0.00 0.00 0.00 68 1013.8
20260503231333 43 270 1.0 6.0 0.00 0.00 0.00 68 1013.9
20260503230833 43 292 4.0 6.0 0.00 0.00 0.00 69 1013.8
20260503230333 43 0 2.0 6.0 0.00 0.00 0.00 69 1014.0
20260503225833 42 315 1.0 5.0 0.00 0.00 0.00 69 1014.0
20260503225333 42 337 1.0 2.0 0.00 0.00 0.00 69 1014.0
20260503224833 42 292 0.0 5.0 0.00 0.00 0.00 69 1014.2
20260503224333 42 247 1.0 3.0 0.00 0.00 0.00 70 1014.2
20260503223833 42 337 1.0 4.0 0.00 0.00 0.00 71 1014.1
20260503223333 42 292 1.0 3.0 0.00 0.00 0.00 71 1014.0
20260503222833 41 270 2.0 6.0 0.00 0.00 0.00 72 1014.0
20260503222333 41 292 1.0 4.0 0.00 0.00 0.00 71 1014.1
20260503221833 41 22 0.0 1.0 0.00 0.00 0.00 71 1014.1
20260503221333 41 337 0.0 1.0 0.00 0.00 0.00 70 1014.2
20260503220833 42 22 0.0 1.0 0.00 0.00 0.00 69 1014.2
20260503220333 42 337 1.0 2.0 0.00 0.00 0.00 69 1014.3
20260503215833 43 292 0.0 3.0 0.00 0.00 0.00 69 1014.2
20260503215333 43 247 2.0 3.0 0.00 0.00 0.00 69 1014.3
20260503214833 42 292 2.0 3.0 0.00 0.00 0.00 69 1014.3
20260503214333 42 270 1.0 4.0 0.00 0.00 0.00 70 1014.3
20260503213833 42 315 1.0 4.0 0.00 0.00 0.00 70 1014.3
20260503213333 43 292 0.0 2.0 0.00 0.00 0.00 70 1014.4
20260503212833 43 270 2.0 3.0 0.00 0.00 0.00 70 1014.5
20260503212333 43 270 2.0 3.0 0.00 0.00 0.00 70 1014.5
20260503211833 42 292 3.0 3.0 0.00 0.00 0.00 70 1014.5
20260503211333 42 315 2.0 3.0 0.00 0.00 0.00 70 1014.5
20260503210833 42 292 2.0 3.0 0.00 0.00 0.00 71 1014.5
20260503210333 42 315 3.0 6.0 0.00 0.00 0.00 71 1014.6
20260503205833 42 337 3.0 4.0 0.00 0.00 0.00 71 1014.7
20260503205333 42 270 1.0 4.0 0.00 0.00 0.00 72 1014.8
20260503204833 42 292 1.0 7.0 0.00 0.00 0.00 73 1014.8
20260503204333 41 292 1.0 4.0 0.00 0.00 0.00 73 1014.9
20260503203833 41 270 1.0 3.0 0.00 0.00 0.00 74 1014.8
20260503203333 41 270 0.0 4.0 0.00 0.00 0.00 75 1014.9
20260503202833 40 292 2.0 4.0 0.00 0.00 0.00 76 1015.0
20260503202333 39 315 1.0 2.0 0.00 0.00 0.00 76 1015.2
20260503201833 39 292 0.0 1.0 0.00 0.00 0.00 76 1015.2
20260503201333 37 292 0.0 2.0 0.00 0.00 0.00 76 1015.3
20260503200833 36 292 0.0 2.0 0.00 0.00 0.00 76 1015.4
20260503200333 36 337 0.0 0.0 0.00 0.00 0.00 74 1015.3
20260503195833 36 45 0.0 0.0 0.00 0.00 0.00 74 1015.4
20260503195333 37 22 0.0 0.0 0.00 0.00 0.00 74 1015.5
20260503194833 37 45 0.0 0.0 0.00 0.00 0.00 75 1015.5
20260503194333 37 0 0.0 1.0 0.00 0.00 0.00 74 1015.6
20260503193833 37 0 0.0 1.0 0.00 0.00 0.00 72 1015.6
20260503193333 38 22 0.0 1.0 0.00 0.00 0.00 72 1015.7
20260503192833 39 22 0.0 0.0 0.00 0.00 0.00 71 1015.8
20260503192333 39 292 0.0 0.0 0.00 0.00 0.00 70 1015.8
20260503191833 39 270 0.0 0.0 0.00 0.00 0.00 70 1015.9
20260503191333 40 247 0.0 1.0 0.00 0.00 0.00 69 1015.9
20260503190833 42 225 0.0 2.0 0.00 0.00 0.00 69 1015.9
20260503190333 42 315 0.0 1.0 0.00 0.00 0.00 69 1015.9
20260503185833 42 315 0.0 1.0 0.00 0.00 0.00 69 1015.8
20260503185333 42 315 0.0 1.0 0.00 0.00 0.00 70 1015.9
20260503184833 42 315 1.0 1.0 0.00 0.00 0.00 70 1015.9
20260503184333 42 315 0.0 0.0 0.00 0.00 0.00 69 1016.0
20260503183833 41 315 0.0 0.0 0.00 0.00 0.00 70 1016.0
20260503183333 41 315 0.0 0.0 0.00 0.00 0.00 70 1016.0
20260503182833 41 315 0.0 0.0 0.00 0.00 0.00 69 1016.1
20260503182334 41 315 0.0 0.0 0.00 0.00 0.00 69 1016.1
20260503181833 42 315 0.0 0.0 0.00 0.00 0.00 68 1016.1
20260503181333 42 315 0.0 0.0 0.00 0.00 0.00 67 1016.0
20260503180834 42 315 0.0 0.0 0.00 0.00 0.00 66 1016.0
20260503180333 43 315 0.0 0.0 0.00 0.00 0.00 65 1016.0
20260503175833 44 315 0.0 0.0 0.00 0.00 0.00 65 1016.0
20260503175334 44 337 0.0 0.0 0.00 0.00 0.00 66 1015.8
20260503174834 44 337 0.0 0.0 0.00 0.00 0.00 65 1015.7
20260503174334 44 337 0.0 0.0 0.00 0.00 0.00 64 1015.6
20260503173834 44 22 0.0 0.0 0.00 0.00 0.00 63 1015.7
20260503173333 45 45 0.0 0.0 0.00 0.00 0.00 62 1015.7
20260503172834 45 45 0.0 0.0 0.00 0.00 0.00 61 1015.7
20260503172333 45 45 0.0 0.0 0.00 0.00 0.00 59 1015.6
20260503171834 46 45 0.0 0.0 0.00 0.00 0.00 58 1015.8
20260503171334 47 112 0.0 0.0 0.00 0.00 0.00 57 1015.7
20260503170834 48 67 0.0 0.0 0.00 0.00 0.00 56 1015.7
20260503170334 49 45 0.0 0.0 0.00 0.00 0.00 55 1015.6
20260503150834 59 45 5.0 9.0 0.00 0.00 0.00 45 1016.0
20260503150334 59 22 6.0 8.0 0.00 0.00 0.00 45 1016.0
20260503131334 61 22 9.0 9.0 0.00 0.00 0.00 46 1017.1
20260503130834 62 45 5.0 10.0 0.00 0.00 0.00 42 1017.1
20260503130334 63 45 3.0 10.0 0.00 0.00 0.00 41 1017.1
20260503110334 62 22 6.0 9.0 0.00 0.00 0.00 41 1018.6
20260503090334 69 45 4.0 10.0 0.00 0.00 0.00 37 1019.3
20260503081334 61 90 2.0 9.0 0.00 0.00 0.00 48 1019.6
20260503080834 61 45 5.0 9.0 0.00 0.00 0.00 46 1019.6
20260503080334 65 45 6.0 10.0 0.00 0.00 0.00 43 1019.5
20260503072834 65 45 10.0 11.0 0.00 0.00 0.00 44 1019.5
20260503072334 64 22 7.0 9.0 0.00 0.00 0.00 44 1019.5
20260503071834 64 45 10.0 10.0 0.00 0.00 0.00 46 1019.4
20260503071334 63 22 5.0 9.0 0.00 0.00 0.00 48 1019.4
20260503070834 62 0 5.0 10.0 0.00 0.00 0.00 48 1019.4
20260503070334 62 22 5.0 9.0 0.00 0.00 0.00 48 1019.4
20260503060334 59 0 2.0 6.0 0.00 0.00 0.00 58 1019.4
20260503054835 56 22 5.0 8.0 0.00 0.00 0.00 60 1019.4
20260503054334 55 0 4.0 11.0 0.00 0.00 0.00 61 1019.4
20260503053835 54 337 4.0 9.0 0.00 0.00 0.00 62 1019.5
20260503053335 53 0 3.0 9.0 0.00 0.00 0.00 63 1019.7
20260503052834 52 0 5.0 7.0 0.00 0.00 0.00 63 1019.5
20260503052335 52 22 4.0 10.0 0.00 0.00 0.00 63 1019.1
20260503051835 51 22 3.0 6.0 0.00 0.00 0.00 63 1019.1
20260503051335 51 337 3.0 10.0 0.00 0.00 0.00 63 1019.2
20260503050835 52 22 3.0 8.0 0.00 0.00 0.00 62 1019.2
20260503050335 52 0 5.0 7.0 0.00 0.00 0.00 62 1019.3
20260503045835 52 0 2.0 8.0 0.00 0.00 0.00 62 1019.3
20260503045335 52 22 4.0 9.0 0.00 0.00 0.00 62 1019.3
20260503044835 51 0 5.0 6.0 0.00 0.00 0.00 62 1019.2
20260503044335 51 45 3.0 9.0 0.00 0.00 0.00 62 1019.1
20260503043835 51 337 7.0 8.0 0.00 0.00 0.00 62 1019.2
20260503043335 51 22 3.0 6.0 0.00 0.00 0.00 63 1019.2
20260503042835 50 0 3.0 6.0 0.00 0.00 0.00 63 1019.2
20260503042335 49 22 1.0 6.0 0.00 0.00 0.00 65 1019.2
20260503041835 48 337 5.0 6.0 0.00 0.00 0.00 65 1019.1
20260503041335 48 337 3.0 4.0 0.00 0.00 0.00 66 1019.1
20260503040835 47 22 2.0 6.0 0.00 0.00 0.00 66 1019.2
20260503040335 46 0 3.0 7.0 0.00 0.00 0.00 66 1019.1
20260503035835 46 337 4.0 7.0 0.00 0.00 0.00 67 1019.1
20260503035335 46 0 5.0 6.0 0.00 0.00 0.00 69 1019.1
20260503034835 45 0 1.0 5.0 0.00 0.00 0.00 70 1019.0
20260503034335 44 22 2.0 6.0 0.00 0.00 0.00 71 1019.1
20260503033835 43 0 4.0 7.0 0.00 0.00 0.00 73 1019.0
20260503033335 42 0 7.0 7.0 0.00 0.00 0.00 74 1018.9
20260503032835 41 292 2.0 6.0 0.00 0.00 0.00 75 1018.9
20260503032335 41 0 5.0 5.0 0.00 0.00 0.00 75 1018.9
20260503031835 40 0 5.0 6.0 0.00 0.00 0.00 76 1018.9
20260503031335 40 0 3.0 4.0 0.00 0.00 0.00 76 1018.9
20260503030835 39 22 2.0 4.0 0.00 0.00 0.00 76 1018.8
20260503030335 39 22 3.0 5.0 0.00 0.00 0.00 76 1018.7
20260503025835 39 0 4.0 5.0 0.00 0.00 0.00 76 1018.7
20260503025335 39 0 4.0 6.0 0.00 0.00 0.00 76 1018.7
20260503024835 39 22 4.0 5.0 0.00 0.00 0.00 76 1018.6
20260503024335 39 0 2.0 5.0 0.00 0.00 0.00 76 1018.6
20260503023835 39 22 2.0 7.0 0.00 0.00 0.00 76 1018.6
20260503023335 39 0 2.0 5.0 0.00 0.00 0.00 76 1018.5
20260503022835 39 337 5.0 6.0 0.00 0.00 0.00 76 1018.6
20260503022335 39 22 5.0 5.0 0.00 0.00 0.00 75 1018.5
20260503021835 40 0 1.0 5.0 0.00 0.00 0.00 75 1018.5
20260503021335 40 0 3.0 7.0 0.00 0.00 0.00 75 1018.5
20260503020835 40 0 2.0 6.0 0.00 0.00 0.00 74 1018.6
20260503020335 41 0 1.0 4.0 0.00 0.00 0.00 73 1018.5
20260503015835 41 0 4.0 6.0 0.00 0.00 0.00 73 1018.5
20260503015335 41 22 2.0 6.0 0.00 0.00 0.00 73 1018.5
20260503014835 42 0 3.0 4.0 0.00 0.00 0.00 73 1018.6
20260503014335 42 337 1.0 6.0 0.00 0.00 0.00 73 1018.6
20260503013835 42 337 3.0 5.0 0.00 0.00 0.00 73 1018.5
20260503013335 42 315 3.0 7.0 0.00 0.00 0.00 74 1018.6
20260503012835 42 337 2.0 6.0 0.00 0.00 0.00 74 1018.6
20260503012335 42 337 5.0 5.0 0.00 0.00 0.00 74 1018.6
20260503011835 41 22 4.0 4.0 0.00 0.00 0.00 74 1018.7
20260503011335 41 0 3.0 6.0 0.00 0.00 0.00 74 1018.7
20260503010835 41 337 3.0 5.0 0.00 0.00 0.00 74 1018.7
20260503010335 41 0 1.0 5.0 0.00 0.00 0.00 75 1018.8
20260503005835 41 0 3.0 7.0 0.00 0.00 0.00 75 1018.8
20260503005335 40 337 2.0 4.0 0.00 0.00 0.00 75 1018.7
20260503004835 40 22 2.0 4.0 0.00 0.00 0.00 75 1018.7
20260503004335 40 337 2.0 4.0 0.00 0.00 0.00 75 1018.7
20260503003835 40 45 2.0 3.0 0.00 0.00 0.00 75 1018.8
20260503003335 40 0 2.0 4.0 0.00 0.00 0.00 75 1018.8